Location: Góry Miechowskie
(50.3599°N, 20.1803°E)
Time: 03:00:11
(UTC+00:00)

Transit 2A Rocket - Pass Details

Date: 16 September 2024
Orbit: 582 x 908 km, 66.7° (Epoch: 10 October)

Event Time Altitude Azimuth Distance (km) Brightness Sun altitude
Exits shadow 23:51:49 33° 330° (NNW) 1,496 6.6 -34.9°
Drops below altitude 10° 23:57:01 10° 29° (NNE) 2,587 8.5 -34.6°
Sets 23:59:47 0° 39° (NE) 3,507 9.4 -34.4°
